Weather History for OTBD - May, 2014

Change the Weather History Date:

Tuesday, May 13, 2014

  Actual Average Record
Temperature  
Mean Temperature 96 °F -  
Max Temperature 107 °F 103 °F 109 °F (2011)
Min Temperature 86 °F 79 °F 73 °F (1997)
Cooling Degree Days 32    
Growing Degree Days 46 (Base 50)    
Moisture  
Dew Point 65 °F    
Average Humidity 39    
Maximum Humidity 62    
Minimum Humidity 10    
Precipitation  
Precipitation 0.00 in 0.00 in - ()
Sea Level Pressure  
Sea Level Pressure 29.70 in    
Wind  
Wind Speed 7 mph ()    
Max Wind Speed 16 mph    
Max Gust Speed -    
Visibility 4.4 miles    
Events      
Averages and records for this station are not official NWS values.
T = Trace of Precipitation, MM = Missing Value Source: Averaged Metar Reports

Daily Weather History Graph

Daily Weather History Graph

Search for Another Location

Airport or City:

Trip Planner

Search our weather history database for the weather conditions in past years. The results will help you decide how hot, cold, wet, or windy it might be!

Date:

Astronomy

May. 13, 2014 Rise Set
Actual Time 4:50 AM AST 6:10 PM AST
Civil Twilight 4:25 AM AST 6:34 PM AST
Nautical Twilight 3:56 AM AST 7:04 PM AST
Astronomical Twilight 3:25 AM AST 7:34 PM AST
Moon 4:55 PM AST (5/13) 3:39 AM AST (5/13)
Length of Visible Light 14h 09m
Length of Day
13h 20m
Waxing Gibbous, 98% of the Moon is Illuminated
May 13
Waxing Gibbous
May 14
Full
May 21
Last Quarter
May 28
New
Jun 5
First Quarter

Hourly Weather History & Observations

Time (AST) Temp. Heat Index Dew Point Humidity Pressure Visibility Wind Dir Wind Speed Gust Speed Precip Events Conditions
12:00 AM 89 °F - 70 °F 43% 29.70 in 5 mi SE 4.6 mph - -   Widespread Dust
12:00 AM 89.6 °F 94.7 °F 69.8 °F 52% 29.68 in 5.0 mi SE 4.6 mph - N/A   Unknown
1:00 AM 89.6 °F 93.4 °F 68.0 °F 49% 29.68 in 5.0 mi South 3.5 mph - N/A   Unknown
2:00 AM 87.8 °F 95.6 °F 73.4 °F 62% 29.68 in 5.0 mi NE 6.9 mph - N/A   Unknown
3:00 AM 88 °F - 69 °F 44% 29.69 in 5 mi 2.3 mph - -   Widespread Dust
3:00 AM 87.8 °F 92.6 °F 69.8 °F 55% 29.68 in 5.0 mi Variable 2.3 mph - N/A   Unknown
4:00 AM 86.0 °F 90.4 °F 69.8 °F 58% 29.68 in 5.0 mi SSE 4.6 mph - N/A   Unknown
5:00 AM 87.8 °F 91.4 °F 68.0 °F 52% 29.68 in 3.7 mi South 3.5 mph - N/A   Unknown
5:30 AM 87.8 °F 90.4 °F 66.2 °F 49% 29.68 in 3.7 mi South 4.6 mph - N/A   Unknown
6:00 AM 88 °F - 67 °F 39% 29.71 in 4 mi SSW 3.5 mph - -   Widespread Dust
6:00 AM 87.8 °F 90.4 °F 66.2 °F 49% 29.71 in 3.7 mi SSW 3.5 mph - N/A   Unknown
6:30 AM 89.6 °F 94.7 °F 69.8 °F 52% 29.71 in 3.7 mi South 8.1 mph - N/A   Unknown
7:00 AM 91.4 °F 95.4 °F 68.0 °F 46% 29.71 in 3.7 mi South 10.4 mph - N/A   Unknown
7:30 AM 93.2 °F 96.2 °F 66.2 °F 41% 29.71 in 3.7 mi South 10.4 mph - N/A   Unknown
8:00 AM 95.0 °F 98.5 °F 66.2 °F 39% 29.71 in 3.7 mi South 10.4 mph - N/A   Unknown
8:30 AM 96.8 °F 100.7 °F 66.2 °F 37% 29.74 in 4.3 mi SSW 10.4 mph - N/A   Unknown
9:00 AM 99 °F - 60 °F 19% 29.75 in 4 mi South 9.2 mph - -   Widespread Dust
9:00 AM 98.6 °F 99.4 °F 60.8 °F 29% 29.74 in 3.7 mi South 9.2 mph - N/A   Unknown
9:30 AM 102.2 °F 102.4 °F 59.0 °F 24% 29.74 in 4.3 mi South 10.4 mph - N/A   Unknown
10:00 AM 102.2 °F 102.4 °F 59.0 °F 24% 29.74 in 4.3 mi South 10.4 mph - N/A   Unknown
10:30 AM 102.2 °F 100.4 °F 53.6 °F 20% 29.74 in 4.3 mi South 12.7 mph - N/A   Unknown
11:00 AM 104.0 °F - 50.0 °F 16% 29.71 in 4.3 mi South 13.8 mph - N/A   Unknown
11:30 AM 104.0 °F - 51.8 °F 17% 29.71 in 4.3 mi South 10.4 mph - N/A   Unknown
12:00 PM 106 °F - 53 °F 10% 29.71 in 4 mi SSE 9.2 mph - -   Widespread Dust
12:00 PM 105.8 °F 104.3 °F 53.6 °F 18% 29.68 in 4.3 mi SSE 9.2 mph - N/A   Unknown
12:30 PM 105.8 °F 104.3 °F 53.6 °F 18% 29.68 in 4.3 mi SSE 9.2 mph - N/A   Unknown
1:00 PM 105.8 °F 105.5 °F 57.2 °F 20% 29.68 in 4.3 mi SE 10.4 mph - N/A   Unknown
2:00 PM 98.6 °F 102.8 °F 66.2 °F 35% 29.65 in 5.0 mi East 10.4 mph - N/A   Unknown
2:30 PM 98.6 °F 102.8 °F 66.2 °F 35% 29.65 in 5.0 mi East 12.7 mph - N/A   Unknown
3:00 PM 98 °F - 62 °F 21% 29.65 in 5 mi East 13.8 mph - -   Widespread Dust
3:00 PM 98.6 °F 99.4 °F 60.8 °F 29% 29.65 in 5.0 mi East 13.8 mph - N/A   Unknown
4:00 PM 93.2 °F 107.2 °F 77.0 °F 59% 29.65 in 5.0 mi NNE 16.1 mph - N/A   Unknown
4:30 PM 91.4 °F 98.4 °F 71.6 °F 52% 29.65 in 4.3 mi NE 16.1 mph - N/A   Unknown
6:00 PM 91 °F - 69 °F 38% 29.69 in 4 mi North 9.2 mph - -   Widespread Dust
7:00 PM 91.4 °F 96.8 °F 69.8 °F 49% 29.71 in 4.3 mi North 11.5 mph - N/A   Unknown
7:30 PM 91.4 °F 95.4 °F 68.0 °F 46% 29.71 in 4.3 mi North 10.4 mph - N/A   Unknown
8:00 PM 91.4 °F 95.4 °F 68.0 °F 46% 29.68 in 4.3 mi North 16.1 mph - N/A   Unknown
9:00 PM 90 °F - 70 °F 42% 29.72 in 4 mi North 11.5 mph - -   Widespread Dust
9:00 PM 89.6 °F 94.7 °F 69.8 °F 52% 29.71 in 4.3 mi North 11.5 mph - N/A   Unknown
9:30 PM 91.4 °F 96.8 °F 69.8 °F 49% 29.71 in 4.3 mi North 10.4 mph - N/A   Unknown
10:00 PM 89.6 °F 94.7 °F 69.8 °F 52% 29.71 in 4.3 mi NNW 6.9 mph - N/A   Unknown
10:30 PM 91.4 °F 95.4 °F 68.0 °F 46% 29.71 in 4.3 mi NNW 8.1 mph - N/A   Unknown
11:00 PM 91.4 °F 95.4 °F 68.0 °F 46% 29.68 in 4.3 mi North 3.5 mph - N/A   Unknown
11:30 PM 91.4 °F 94.0 °F 66.2 °F 43% 29.68 in 5.0 mi Variable 2.3 mph - N/A   Unknown